Location: San Antonio
(29.4240°N, 98.4930°W)
Time: 22:05:55
(UTC-05:00)

Transit 4A - Pass Details

Date: 16 July 2024
Orbit: 863 x 978 km, 66.8° (Epoch: 17 April)

Event Time Altitude Azimuth Distance (km) Brightness Sun altitude
Rises 18:46:44 0° 238° (WSW) 3,451 11.6 21.4°
Reaches altitude 10° 18:49:46 10° 254° (WSW) 2,506 11.4 20.8°
Maximum altitude 18:54:10 22° 304° (WNW) 1,793 11.2 19.8°
Drops below altitude 10° 18:58:34 10° 354° (N) 2,504 10.5 18.9°
Sets 19:01:38 0° 9° (N) 3,448 11.0 18.3°
